This is the latest recevied weather packets stored in our database for station/object SV9TNF-56. If no packets are shown the sender has not sent any weather packets the latest 10 day(s).
| Time | Temp. | Humidity | Pressure | Rain* | Wind** | Luminosity | Snow |
|---|---|---|---|---|---|---|---|
| 1788493772 | 23.89° C | 75% | 1009.8 hPa | 0 mm | 16.99 m/s, 336° | - | - |
| 1788493472 | 23.89° C | 74% | 1009.8 hPa | 0 mm | 15.2 m/s, 323° | - | - |
| 1788493172 | 23.89° C | 74% | 1009.8 hPa | 0 mm | 24.59 m/s, 275° | - | - |
| 1788492872 | 23.89° C | 74% | 1009.5 hPa | 0 mm | 16.09 m/s, 294° | - | - |
| 1788492572 | 23.89° C | 74% | 1009.8 hPa | 0 mm | 16.54 m/s, 282° | - | - |
| 1788492272 | 23.89° C | 74% | 1009.5 hPa | 0 mm | 22.35 m/s, 32° | - | - |
| 1788491971 | 23.89° C | 74% | 1009.8 hPa | 0 mm | 19.67 m/s, 318° | - | - |
| 1788491671 | 23.89° C | 73% | 1009.8 hPa | 0 mm | 22.8 m/s, 186° | - | - |
| 1788491371 | 23.89° C | 73% | 1009.5 hPa | 0 mm | 27.72 m/s, 323° | - | - |
| 1788491071 | 23.89° C | 73% | 1009.8 hPa | 0 mm | 16.99 m/s, 222° | - | - |
| 1788490771 | 23.89° C | 73% | 1009.5 hPa | 0 mm | 26.82 m/s, 206° | - | - |
| 1788490471 | 23.89° C | 72% | 1009.8 hPa | 0 mm | 13.41 m/s, 312° | - | - |
| 1788490171 | 23.89° C | 73% | 1009.8 hPa | 0 mm | 16.99 m/s, 274° | - | - |
| 1788489871 | 23.89° C | 74% | 1009.5 hPa | 0 mm | 21.9 m/s, 354° | - | - |
| 1788489571 | 23.89° C | 74% | 1009.8 hPa | 0 mm | 21.9 m/s, 295° | - | - |
| 1788489270 | 23.89° C | 74% | 1009.5 hPa | 0 mm | 28.16 m/s, 234° | - | - |
| 1788488970 | 23.89° C | 74% | 1009.5 hPa | 0 mm | 16.54 m/s, 348° | - | - |
| 1788488671 | 23.89° C | 74% | 1009.5 hPa | 0 mm | 26.38 m/s, 306° | - | - |
| 1788488371 | 23.89° C | 74% | 1009.5 hPa | 0 mm | 21.01 m/s, 324° | - | - |
| 1788488070 | 23.89° C | 74% | 1009.8 hPa | 0 mm | 16.99 m/s, 267° | - | - |
| 1788487770 | 23.89° C | 74% | 1009.8 hPa | 0 mm | 24.14 m/s, 271° | - | - |
| 1788487470 | 23.89° C | 75% | 1009.8 hPa | 0 mm | 19.22 m/s, 318° | - | - |
| 1788487170 | 23.89° C | 75% | 1009.5 hPa | 0 mm | 24.59 m/s, 318° | - | - |
| 1788486871 | 23.89° C | 74% | 1009.8 hPa | 0 mm | 26.38 m/s, 354° | - | - |
| 1788486570 | 23.89° C | 75% | 1009.8 hPa | 0 mm | 19.67 m/s, 348° | - | - |
* Rain latest hour (hover to see other rain measurements)
** Current wind speed in m/s (hover to see current wind gust speed)